Year,Month,Day,Hour,Minute,Value (Times are PST for temperature in C)
2018,03,20,00,00,6.30
2018,03,20,00,01,6.30
2018,03,20,00,02,6.30
2018,03,20,00,03,6.30
2018,03,20,00,04,6.20
2018,03,20,00,05,6.20
2018,03,20,00,06,6.20
2018,03,20,00,07,6.20
2018,03,20,00,08,6.20
2018,03,20,00,09,6.20
2018,03,20,00,10,6.20
2018,03,20,00,11,6.20
2018,03,20,00,12,6.20
2018,03,20,00,13,6.20
2018,03,20,00,14,6.20
2018,03,20,00,15,6.20
2018,03,20,00,16,6.20
2018,03,20,00,17,6.20
2018,03,20,00,18,6.20
2018,03,20,00,19,6.20
2018,03,20,00,20,6.20
2018,03,20,00,21,6.20
2018,03,20,00,22,6.20
2018,03,20,00,23,6.20
2018,03,20,00,24,6.20
2018,03,20,00,25,6.20
2018,03,20,00,26,6.20
2018,03,20,00,27,6.20
2018,03,20,00,28,6.30
2018,03,20,00,29,6.30
2018,03,20,00,30,6.30
2018,03,20,00,31,6.30
2018,03,20,00,32,6.20
2018,03,20,00,33,6.20
2018,03,20,00,34,6.20
2018,03,20,00,35,6.20
2018,03,20,00,36,6.20
2018,03,20,00,37,6.20
2018,03,20,00,38,6.20
2018,03,20,00,39,6.20
2018,03,20,00,40,6.20
2018,03,20,00,41,6.20
2018,03,20,00,42,6.20
2018,03,20,00,43,6.20
2018,03,20,00,44,6.20
2018,03,20,00,45,6.20
2018,03,20,00,46,6.20
2018,03,20,00,47,6.20
2018,03,20,00,48,6.20
2018,03,20,00,49,6.20
2018,03,20,00,50,6.20
2018,03,20,00,51,6.10
2018,03,20,00,52,6.20
2018,03,20,00,53,6.10
2018,03,20,00,54,6.20
2018,03,20,00,55,6.20
2018,03,20,00,56,6.20
2018,03,20,00,57,6.20
2018,03,20,00,58,6.20
2018,03,20,00,59,6.20
2018,03,20,01,00,6.20
2018,03,20,01,01,6.20
2018,03,20,01,02,6.20
2018,03,20,01,03,6.20
2018,03,20,01,04,6.20
2018,03,20,01,05,6.20
2018,03,20,01,06,6.20
2018,03,20,01,07,6.20
2018,03,20,01,08,6.20
2018,03,20,01,09,6.20
2018,03,20,01,10,6.20
2018,03,20,01,11,6.20
2018,03,20,01,12,6.20
2018,03,20,01,13,6.20
2018,03,20,01,14,6.20
2018,03,20,01,15,6.20
2018,03,20,01,16,6.20
2018,03,20,01,17,6.20
2018,03,20,01,18,6.20
2018,03,20,01,19,6.20
2018,03,20,01,20,6.20
2018,03,20,01,21,6.20
2018,03,20,01,22,6.20
2018,03,20,01,23,6.20
2018,03,20,01,24,6.20
2018,03,20,01,25,6.10
2018,03,20,01,26,6.20
2018,03,20,01,27,6.10
2018,03,20,01,28,6.10
2018,03,20,01,29,6.10
2018,03,20,01,30,6.10
2018,03,20,01,31,6.10
2018,03,20,01,32,6.10
2018,03,20,01,33,6.10
2018,03,20,01,34,6.10
2018,03,20,01,35,6.10
2018,03,20,01,36,6.10
2018,03,20,01,37,6.10
2018,03,20,01,38,6.10
2018,03,20,01,39,6.10
2018,03,20,01,40,6.10
2018,03,20,01,41,6.10
2018,03,20,01,42,6.10
2018,03,20,01,43,6.10
2018,03,20,01,44,6.10
2018,03,20,01,45,6.10
2018,03,20,01,46,6.10
2018,03,20,01,47,6.10
2018,03,20,01,48,6.10
2018,03,20,01,49,6.10
2018,03,20,01,50,6.10
2018,03,20,01,51,6.10
2018,03,20,01,52,6.10
2018,03,20,01,53,6.00
2018,03,20,01,54,6.00
2018,03,20,01,55,6.00
2018,03,20,01,56,6.00
2018,03,20,01,57,6.00
2018,03,20,01,58,6.00
2018,03,20,01,59,5.90
2018,03,20,02,00,5.90
2018,03,20,02,01,5.90
2018,03,20,02,02,5.90
2018,03,20,02,03,5.90
2018,03,20,02,04,5.80
2018,03,20,02,05,5.80
2018,03,20,02,06,5.80
2018,03,20,02,07,5.80
2018,03,20,02,08,5.80
2018,03,20,02,09,5.80
2018,03,20,02,10,5.70
2018,03,20,02,11,5.70
2018,03,20,02,12,5.70
2018,03,20,02,13,5.70
2018,03,20,02,14,5.70
2018,03,20,02,15,5.70
2018,03,20,02,16,5.60
2018,03,20,02,17,5.60
2018,03,20,02,18,5.60
2018,03,20,02,19,5.60
2018,03,20,02,20,5.50
2018,03,20,02,21,5.50
2018,03,20,02,22,5.50
2018,03,20,02,23,5.50
2018,03,20,02,24,5.50
2018,03,20,02,25,5.50
2018,03,20,02,26,5.40
2018,03,20,02,27,5.40
2018,03,20,02,28,5.40
2018,03,20,02,29,5.40
2018,03,20,02,30,5.30
2018,03,20,02,31,5.30
2018,03,20,02,32,5.30
2018,03,20,02,33,5.30
2018,03,20,02,34,5.30
2018,03,20,02,35,5.30
2018,03,20,02,36,5.20
2018,03,20,02,37,5.20
2018,03,20,02,38,5.20
2018,03,20,02,39,5.10
2018,03,20,02,40,5.10
2018,03,20,02,41,5.10
2018,03,20,02,42,5.10
2018,03,20,02,43,5.10
2018,03,20,02,44,5.10
2018,03,20,02,45,5.10
2018,03,20,02,46,5.10
2018,03,20,02,47,5.10
2018,03,20,02,48,5.10
2018,03,20,02,49,5.10
2018,03,20,02,50,5.10
2018,03,20,02,51,5.10
2018,03,20,02,52,5.10
2018,03,20,02,53,5.10
2018,03,20,02,54,5.00
2018,03,20,02,55,5.00
2018,03,20,02,56,4.90
2018,03,20,02,57,4.90
2018,03,20,02,58,4.90
2018,03,20,02,59,4.80
2018,03,20,03,00,4.80
2018,03,20,03,01,4.80
2018,03,20,03,02,4.80
2018,03,20,03,03,4.80
2018,03,20,03,04,4.70
2018,03,20,03,05,4.70
2018,03,20,03,06,4.70
2018,03,20,03,07,4.70
2018,03,20,03,08,4.70
2018,03,20,03,09,4.70
2018,03,20,03,10,4.60
2018,03,20,03,11,4.60
2018,03,20,03,12,4.60
2018,03,20,03,13,4.60
2018,03,20,03,14,4.60
2018,03,20,03,15,4.60
2018,03,20,03,16,4.50
2018,03,20,03,17,4.50
2018,03,20,03,18,4.50
2018,03,20,03,19,4.40
2018,03,20,03,20,4.40
2018,03,20,03,21,4.40
2018,03,20,03,22,4.40
2018,03,20,03,23,4.30
2018,03,20,03,24,4.30
2018,03,20,03,25,4.30
2018,03,20,03,26,4.30
2018,03,20,03,27,4.30
2018,03,20,03,28,4.20
2018,03,20,03,29,4.20
2018,03,20,03,30,4.20
2018,03,20,03,31,4.20
2018,03,20,03,32,4.10
2018,03,20,03,33,4.10
2018,03,20,03,34,4.10
2018,03,20,03,35,4.00
2018,03,20,03,36,4.00
2018,03,20,03,37,4.00
2018,03,20,03,38,3.90
2018,03,20,03,39,3.90
2018,03,20,03,40,3.90
2018,03,20,03,41,3.90
2018,03,20,03,42,3.80
2018,03,20,03,43,3.80
2018,03,20,03,44,3.80
2018,03,20,03,45,3.70
2018,03,20,03,46,3.70
2018,03,20,03,47,3.70
2018,03,20,03,48,3.70
2018,03,20,03,49,3.70
2018,03,20,03,50,3.70
2018,03,20,03,51,3.70
2018,03,20,03,52,3.70
2018,03,20,03,53,3.70
2018,03,20,03,54,3.70
2018,03,20,03,55,3.70
2018,03,20,03,56,3.70
2018,03,20,03,57,3.60
2018,03,20,03,58,3.60
2018,03,20,03,59,3.60
2018,03,20,04,00,3.60
2018,03,20,04,01,3.60
2018,03,20,04,02,3.60
2018,03,20,04,03,3.60
2018,03,20,04,04,3.60
2018,03,20,04,05,3.60
2018,03,20,04,06,3.60
2018,03,20,04,07,3.60
2018,03,20,04,08,3.60
2018,03,20,04,09,3.60
2018,03,20,04,10,3.70
2018,03,20,04,11,3.70
2018,03,20,04,12,3.70
2018,03,20,04,13,3.70
2018,03,20,04,14,3.70
2018,03,20,04,15,3.70
2018,03,20,04,16,3.80
2018,03,20,04,17,3.80
2018,03,20,04,18,3.80
2018,03,20,04,19,3.80
2018,03,20,04,20,3.80
2018,03,20,04,21,3.80
2018,03,20,04,22,3.80
2018,03,20,04,23,3.90
2018,03,20,04,24,3.90
2018,03,20,04,25,3.90
2018,03,20,04,26,3.90
2018,03,20,04,27,3.90
2018,03,20,04,28,3.90
2018,03,20,04,29,3.90
2018,03,20,04,30,3.90
2018,03,20,04,31,3.90
2018,03,20,04,32,3.80
2018,03,20,04,33,3.80
2018,03,20,04,34,3.80
2018,03,20,04,35,3.80
2018,03,20,04,36,3.80
2018,03,20,04,37,3.80
2018,03,20,04,38,3.80
2018,03,20,04,39,3.80
2018,03,20,04,40,3.80
2018,03,20,04,41,3.80
2018,03,20,04,42,3.80
2018,03,20,04,43,3.80
2018,03,20,04,44,3.80
2018,03,20,04,45,3.80
2018,03,20,04,46,3.80
2018,03,20,04,47,3.70
2018,03,20,04,48,3.70
2018,03,20,04,49,3.80
2018,03,20,04,50,3.80
2018,03,20,04,51,3.70
2018,03,20,04,52,3.70
2018,03,20,04,53,3.70
2018,03,20,04,54,3.80
2018,03,20,04,55,3.80
2018,03,20,04,56,3.80
2018,03,20,04,57,3.80
2018,03,20,04,58,3.80
2018,03,20,04,59,3.80
2018,03,20,05,00,3.80
2018,03,20,05,01,3.80
2018,03,20,05,02,3.70
2018,03,20,05,03,3.70
2018,03,20,05,04,3.70
2018,03,20,05,05,3.70
2018,03,20,05,06,3.70
2018,03,20,05,07,3.60
2018,03,20,05,08,3.60
2018,03,20,05,09,3.60
2018,03,20,05,10,3.60
2018,03,20,05,11,3.60
2018,03,20,05,12,3.60
2018,03,20,05,13,3.50
2018,03,20,05,14,3.50
2018,03,20,05,15,3.50
2018,03,20,05,16,3.50
2018,03,20,05,17,3.50
2018,03,20,05,18,3.50
2018,03,20,05,19,3.50
2018,03,20,05,20,3.50
2018,03,20,05,21,3.50
2018,03,20,05,22,3.50
2018,03,20,05,23,3.50
2018,03,20,05,24,3.50
2018,03,20,05,25,3.40
2018,03,20,05,26,3.40
2018,03,20,05,27,3.40
2018,03,20,05,28,3.40
2018,03,20,05,29,3.40
2018,03,20,05,30,3.40
2018,03,20,05,31,3.40
2018,03,20,05,32,3.40
2018,03,20,05,33,3.40
2018,03,20,05,34,3.40
2018,03,20,05,35,3.40
2018,03,20,05,36,3.40
2018,03,20,05,37,3.40
2018,03,20,05,38,3.40
2018,03,20,05,39,3.40
2018,03,20,05,40,3.40
2018,03,20,05,41,3.30
2018,03,20,05,42,3.30
2018,03,20,05,43,3.30
2018,03,20,05,44,3.30
2018,03,20,05,45,3.30
2018,03,20,05,46,3.30
2018,03,20,05,47,3.30
2018,03,20,05,48,3.30
2018,03,20,05,49,3.30
2018,03,20,05,50,3.30
2018,03,20,05,51,3.30
2018,03,20,05,52,3.30
2018,03,20,05,53,3.30
2018,03,20,05,54,3.30
2018,03,20,05,55,3.30
2018,03,20,05,56,3.20
2018,03,20,05,57,3.20
2018,03,20,05,58,3.20
2018,03,20,05,59,3.20
2018,03,20,06,00,3.20
2018,03,20,06,01,3.20
2018,03,20,06,02,3.20
2018,03,20,06,03,3.20
2018,03,20,06,04,3.20
2018,03,20,06,05,3.10
2018,03,20,06,06,3.10
2018,03,20,06,07,3.10
2018,03,20,06,08,3.10
2018,03,20,06,09,3.10
2018,03,20,06,10,3.10
2018,03,20,06,11,3.10
2018,03,20,06,12,3.00
2018,03,20,06,13,3.00
2018,03,20,06,14,3.00
2018,03,20,06,15,3.00
2018,03,20,06,16,3.00
2018,03,20,06,17,3.10
2018,03,20,06,18,3.10
2018,03,20,06,19,3.10
2018,03,20,06,20,3.10
2018,03,20,06,21,3.20
2018,03,20,06,22,3.20
2018,03,20,06,23,3.20
2018,03,20,06,24,3.20
2018,03,20,06,25,3.20
2018,03,20,06,26,3.30
2018,03,20,06,27,3.30
2018,03,20,06,28,3.30
2018,03,20,06,29,3.30
2018,03,20,06,30,3.30
2018,03,20,06,31,3.30
2018,03,20,06,32,3.30
2018,03,20,06,33,3.40
2018,03,20,06,34,3.40
2018,03,20,06,35,3.40
2018,03,20,06,36,3.40
2018,03,20,06,37,3.40
2018,03,20,06,38,3.40
2018,03,20,06,39,3.40
2018,03,20,06,40,3.40
2018,03,20,06,41,3.40
2018,03,20,06,42,3.40
2018,03,20,06,43,3.40
2018,03,20,06,44,3.40
2018,03,20,06,45,3.40
2018,03,20,06,46,3.40
2018,03,20,06,47,3.50
2018,03,20,06,48,3.50
2018,03,20,06,49,3.50
2018,03,20,06,50,3.50
2018,03,20,06,51,3.50
2018,03,20,06,52,3.50
2018,03,20,06,53,3.50
2018,03,20,06,54,3.50
2018,03,20,06,55,3.60
2018,03,20,06,56,3.60
2018,03,20,06,57,3.60
2018,03,20,06,58,3.60
2018,03,20,06,59,3.60
2018,03,20,07,00,3.60
2018,03,20,07,01,3.60
2018,03,20,07,02,3.60
2018,03,20,07,03,3.60
2018,03,20,07,04,3.70
2018,03,20,07,05,3.70
2018,03,20,07,06,3.70
2018,03,20,07,07,3.70
2018,03,20,07,08,3.70
2018,03,20,07,09,3.70
2018,03,20,07,10,3.70
2018,03,20,07,11,3.70
2018,03,20,07,12,3.80
2018,03,20,07,13,3.80
2018,03,20,07,14,3.80
2018,03,20,07,15,3.80
2018,03,20,07,16,3.80
2018,03,20,07,17,3.80
2018,03,20,07,18,3.80
2018,03,20,07,19,3.90
2018,03,20,07,20,3.90
2018,03,20,07,21,3.90
2018,03,20,07,22,3.90
2018,03,20,07,23,3.90
2018,03,20,07,24,3.90
2018,03,20,07,25,3.90
2018,03,20,07,26,4.00
2018,03,20,07,27,4.00
2018,03,20,07,28,4.00
2018,03,20,07,29,4.00
2018,03,20,07,30,4.00
2018,03,20,07,31,4.00
2018,03,20,07,32,4.00
2018,03,20,07,33,4.00
2018,03,20,07,34,4.00
2018,03,20,07,35,4.10
2018,03,20,07,36,4.10
2018,03,20,07,37,4.10
2018,03,20,07,38,4.00
2018,03,20,07,39,4.00
2018,03,20,07,40,4.00
2018,03,20,07,41,4.10
2018,03,20,07,42,4.10
2018,03,20,07,43,4.00
2018,03,20,07,44,4.00
2018,03,20,07,45,4.00
2018,03,20,07,46,4.00
2018,03,20,07,47,3.90
2018,03,20,07,48,3.90
2018,03,20,07,49,3.90
2018,03,20,07,50,3.90
2018,03,20,07,51,3.90
2018,03,20,07,52,3.90
2018,03,20,07,53,3.90
2018,03,20,07,54,3.90
2018,03,20,07,55,3.90
2018,03,20,07,56,3.90
2018,03,20,07,57,3.90
